Flag for Spain Weather past 2 weeks in Barcelona, Barcelona, Spain

Now
73 °F

Passing clouds.


Feels Like: 76 °F
Forecast: 63 / 79 °F
Wind: 6 mph from Southeast

Location: Barcelona Airport

Current Time: Aug 23, 2014 at 10:18:51 PM

Latest Report: Aug 23, 2014 at 10:00 PM


Visibility: N/A

Pressure: 30.09 "Hg

Humidity: 69%

Dew point: 63 °F

Location of BarcelonaLocation

Historic Weather in Barcelona — Graph

°F

Barcelona temperature yesterday

Maximum temperature yesterday: 73 °F (at 12:30 AM)
Minimum temperature yesterday: 64 °F (at 10:04 PM)
Average temperature yesterday: 71 °F

Past Weeks' High & Low Weather Summary

 TemperatureHumidityPressure
High90 °F (Aug 13, 11:30 AM)100% (Aug 23, 12:00 AM)30.18 "Hg (Aug 23, 12:00 AM)
Low64 °F (Aug 22, 10:04 PM)31% (Aug 13, 12:00 PM)29.71 "Hg (Aug 13, 6:00 AM)
Average75 °F69%29.98 "Hg
* Reported Aug 8 9:00 PM — Aug 23 9:00 PM, Barcelona, Weather by CustomWeather, © 2014

Note: Actual official high and low records may vary slightly from our data, if they occured in-between our weather recording intervals... More about our weather records

Advertising

Barcelona weather history for previous 24 hours

 ConditionsComfort  
Time TempWeatherWind HumidityBarometerVisibility
9:00 PM
Aug 23
73 °FPassing clouds.6 mph69%30.09 "HgN/A
8:30 PM73 °FPassing clouds.7 mph69%30.07 "HgN/A
8:00 PM75 °FPassing clouds.7 mph65%30.07 "HgN/A
7:30 PM75 °FPassing clouds.10 mph65%30.07 "HgN/A
7:00 PM75 °FPassing clouds.13 mph69%30.04 "HgN/A
6:30 PM75 °FPassing clouds.13 mph65%30.04 "HgN/A
6:00 PM77 °FPassing clouds.14 mph65%30.04 "HgN/A
5:30 PM75 °FPassing clouds.13 mph65%30.04 "HgN/A
5:00 PM75 °FPassing clouds.14 mph65%30.04 "HgN/A
4:30 PM77 °FPassing clouds.14 mph57%30.04 "HgN/A
4:00 PM77 °FPassing clouds.14 mph47%30.04 "HgN/A
3:30 PM75 °FPassing clouds.15 mph57%30.07 "HgN/A
3:00 PM77 °FPassing clouds.15 mph61%30.07 "HgN/A
2:30 PM75 °FPassing clouds.14 mph69%30.07 "HgN/A
2:00 PM75 °FPassing clouds.14 mph69%30.07 "HgN/A
1:30 PM75 °FPassing clouds.15 mph65%30.07 "HgN/A
1:00 PM73 °FPassing clouds.14 mph69%30.07 "HgN/A
12:30 PM73 °FPassing clouds.12 mph69%30.07 "HgN/A
12:00 PM73 °FPassing clouds.10 mph69%30.07 "HgN/A
11:30 AM73 °FScattered clouds.8 mph69%30.07 "HgN/A
11:00 AM72 °FPassing clouds.5 mph69%30.07 "HgN/A
10:30 AM70 °FPassing clouds.2 mph78%30.07 "HgN/A
10:00 AM70 °FPassing clouds.6 mph78%30.07 "HgN/A
9:30 AM68 °FScattered clouds.7 mph88%30.07 "HgN/A
9:00 AM68 °FPartly sunny.7 mph88%30.04 "HgN/A
8:30 AM66 °FPartly sunny.7 mph88%30.04 "HgN/A
8:00 AM66 °FPassing clouds.6 mph88%30.04 "HgN/A
7:30 AM66 °FPassing clouds.6 mph88%30.04 "HgN/A
7:00 AM66 °FPassing clouds.7 mph88%30.04 "HgN/A
6:30 AM66 °FPassing clouds.7 mph88%30.01 "HgN/A
6:00 AM66 °FPassing clouds.7 mph88%30.01 "HgN/A
5:30 AM66 °FPartly cloudy.3 mph88%30.01 "HgN/A
5:00 AM66 °FPartly cloudy.5 mph88%30.01 "HgN/A
4:30 AM66 °FPartly cloudy.6 mph88%30.04 "HgN/A
4:00 AM64 °FPassing clouds.5 mph94%30.01 "HgN/A
3:30 AM64 °FPassing clouds.5 mph94%30.01 "HgN/A
3:00 AM66 °FPartly cloudy.5 mph88%30.01 "HgN/A
2:30 AM66 °FPartly cloudy.5 mph88%30.01 "HgN/A
2:00 AM66 °FPartly cloudy.5 mph94%30.01 "HgN/A
1:30 AM66 °FPassing clouds.6 mph94%30.01 "HgN/A
1:00 AM66 °FPassing clouds.9 mph94%30.01 "HgN/A
12:30 AM66 °FLight rain. Partly cloudy.13 mph94%30.01 "Hg4 mi
12:00 AM64 °FLight rain. Partly cloudy.7 mph100%30.01 "Hg4 mi
11:30 PM
Aug 22
64 °FThunderstorms. Partly cloudy.5 mph94%30.01 "Hg2 mi
11:00 PM64 °FThunderstorms. Partly cloudy.7 mph94%30.01 "Hg2 mi
10:30 PM64 °FThunderstorms. Partly cloudy.9 mph94%30.01 "Hg1 mi
10:04 PM64 °FStrong thunderstorms. Partly cloudy.14 mph94%30.01 "Hg1 mi
Weather by CustomWeather, © 2014

See weather overviewHow to use our weather pages